カタログに戻る

CZ-3C DEB

VEB

運用中HEO
NORAD 38095·DEBRIS·🇨🇳 China

打ち上げ Feb 24, 2012 から Xichang Satellite Launch Center

Loading…

次のパス (今後24時間)

TLE

最新Source: Space-Track

元期: Sep 14, 2026, 14:12 UTC

1 38095U 12008C   26257.59235234  .00013486  00000-0  15495-2 0  9999
2 38095  21.0021 310.5700 6494713 175.2564 196.8945  3.34879660142907

AllMySatでCZ-3C DEBをリアルタイム追跡

Download on the App Store